STARLINK-35854

Last updated on Sun Apr 12 2026 00:02:07 GMT+0000 (Coordinated Universal Time)

1 68214U 26053H 26101.50002315 -.01842048 00000+0 -24740-1 0 9999 2 68214 97.2848 337.4201 0001677 72.3896 16.6635 15.60998268 5058

Satellite not in orbit

STARLINK-35854